BINAR-3

Last updated on Mon Sep 16 2024 00:02:05 GMT+0000 (Coordinated Universal Time)

1 60957U 98067WX 24258.92599574 .00201438 00000+0 28141-2 0 9993 2 60957 51.6348 230.4496 0010218 7.0080 353.1052 15.55585319 4551
UTC large
Height (km)
Speed (km/s)
/
Latitude / Longitude
Inclination (degrees)
Orbital Period (minutes)
Azimuth
Elevation
Range (km)
Doppler Factor

Next 0 passes for location: London (51.5072 / 0.1276)

Sorry there are no passes over London.